Regional Weather Roundup
Issued by NWS Grand Forks, ND

Home | Current Version | Previous Version | Graphics & Text | Print | Product List | Glossary On
Versions: 1 2 3 4 5 6 7 8 9 10 11 12 13 14 15 16 17 18 19 20 21 22 23 24 25 26 27 28 29 30 31 32 33 34 35 36 37 38 39 40 41 42 43 44 45 46 47 48 49 50
000
ASUS43 KFGF 290531
RWRFGF
PRAIRIE TO PINES  WEATHER ROUNDUP
NATIONAL WEATHER SERVICE EASTERN NORTH DAKOTA/GRAND FORKS ND
1200 AM CDT MON MAY 29 2017

 **SATELLITE DATA USED TO AUGMENT SKY COVER AT AUTOMATED STATIONS**
 *****  WEATHER ACROSS EASTERN NORTH DAKOTA  *****

CITY           SKY/WX    TMP DP  RH WIND       PRES   REMARKS
GRAND FORKS    CLOUDY    53  50  89 NW15G25   29.79S
GRAND FRKS AFB RAIN      52  48  87 N10       29.80S
DEVILS LAKE    MOCLDY    52  45  77 NW14      29.85F
FARGO          CLOUDY    54  48  80 NW14      29.80S
WAHPETON ARPT  CLOUDY    54  43  66 NW14      29.81S
$$

 ***** WEATHER ACROSS CENTRAL AND WESTERN NORTH DAKOTA  *****

CITY           SKY/WX    TMP DP  RH WIND       PRES   REMARKS
BISMARCK       FAIR      55  41  59 NW8       29.97R
MINOT          CLOUDY    55  44  66 NW16      29.95S
JAMESTOWN      CLOUDY    52  48  86 NW12      29.86S
MINOT AFB      CLOUDY    53  44  71 NW21G26   29.94S
GARRISON         N/A     46  40  79 NW9       29.97S
WILLISTON      FAIR      52  40  63 NW9       30.07R
DICKINSON      FAIR      42  34  73 NW7       30.03S
HETTINGER      FAIR      48  37  65 N8        30.06R
$$

 *****  OTHER AIRPORT OBSERVATIONS IN OUR AREA  *****

CITY           SKY/WX    TMP DP  RH WIND       PRES   REMARKS
WALHALLA       NOT AVBL
GRAFTON AIRPOR   N/A     50  50 100 NW18G25   29.80F
VALLEY CITY AR CLOUDY    52  52 100 NW10      29.86S
CANDO          NOT AVBL
CAVALIER APRT  CLOUDY    50  50 100 NW15G22   29.80S FOG
GWINNER        MOCLDY    54  46  76 MISG      29.85S
SHEYENNE NWR     N/A     54  46  74 NW7       29.95S
ROLLA          CLOUDY    50  50 100 N14       29.87S
 ***** THE ABOVE OBSERVATIONS ARE NON NWS ARE NOT QUALITY
       CONTROLLED AND MAY MIS-REPORT RAIN FOR SNOW...
$$

  *****  WEATHER ACROSS NORTHERN MINNESOTA  *****

CITY           SKY/WX    TMP DP  RH WIND       PRES   REMARKS
FLAG ISLAND    FAIR      50  46  87 NW18G24   29.68S
WARROAD        CLOUDY    50  46  87 NW13      29.71F
ROSEAU         CLOUDY    50  45  81 NW12      29.72F
HALLOCK        CLOUDY    52  46  82 NW16G23   29.77R
THF RVR FALLS  LGT RAIN  50  48  93 NW13      29.76S
BAUDETTE       CLOUDY    51  46  83 NW14G24   29.68S
WASKISH        LGT RAIN  52  50  93 NW12      29.69R
CROOKSTON      CLOUDY    52  48  87 NW15G21   29.78S
STEPHEN NDAWN    N/A     52  48  87 NW13        N/A
GREENBUSH NDAW   N/A     50  48  93 NW9         N/A
$$
  *****  WEATHER ACROSS CENTRAL AND WEST MINNESOTA  *****

CITY           SKY/WX    TMP DP  RH WIND       PRES   REMARKS
FOSSTON        CLOUDY    48  46  93 NW10G16   29.76R FOG
BEMIDJI        CLOUDY    49  47  92 NW12      29.71S
PARK RAPIDS    CLOUDY    52  45  77 NW14      29.73R
ELBOW LAKE     CLOUDY    52  49  87 NW8       29.81S
WADENA         CLOUDY    52  45  76 NW14      29.75S
DETROIT LAKES  CLOUDY    52  45  76 NW15      29.78S
MOORHEAD       CLOUDY    54  48  82 NW14      29.80F
FERGUS FALLS   CLOUDY    54  46  76 NW15      29.78F
MORRIS MN      CLOUDY    54  46  76 W10       29.81S
STAPLES        CLOUDY    52  46  82 NW9       29.74S
$$
  *****  WEATHER ELSEWHERE ACROSS MINNESOTA  *****

CITY           SKY/WX    TMP DP  RH WIND       PRES   REMARKS
DULUTH         LGT RAIN  51  49  92 W9        29.63F
INTRNTL FALLS  CLOUDY    53  49  86 NW8       29.63S
ELY            MOCLDY    48  48 100 W5        29.60F
CLOQUET        MOCLDY    50  46  87 W5        29.65S
WHEATON        LGT RAIN  54  46  76 W12       29.84S
BRAINERD       CLOUDY    54  47  77 NW15      29.72R
HIBBING        CLOUDY    50  50 100 W5        29.63F
ALEXANDRIA     CLOUDY    52  47  83 NW12      29.78S
SAINT CLOUD    CLOUDY    53  50  89 W8        29.72F
MINNEAPOLIS    CLOUDY    57  48  72 W6        29.74F
$$

  *****  WEATHER ACROSS SOUTH DAKOTA  *****

CITY           SKY/WX    TMP DP  RH WIND       PRES   REMARKS
SIOUX FALLS    FAIR      51  47  86 W6        29.89R
BROOKINGS      FAIR      51  45  79 NW8       29.89S
WATERTOWN      FAIR      50  44  80 NW6       29.87S
HURON          FAIR      49  45  86 NW6       29.91S
SISSETON         N/A     55  46  71 NW14      29.83S
ABERDEEN       FAIR      53  40  61 NW9       29.88F
MITCHELL       MOCLDY    57  49  74 CALM      29.92S
PIERRE         FAIR      49  37  63 N6        29.95S
MOBRIDGE       FAIR      56  39  53 N9        29.94S
RAPID CITY     MOCLDY    56  42  59 NW10      30.09R
$$

  *****  SOME WEATHER IN NEARBY STATES *****

CITY           SKY/WX    TMP DP  RH WIND       PRES   REMARKS
GLASGOW MT     FAIR      53  28  38 N9        30.14R
GREAT FALLS MT FAIR      53  45  74 W6        30.24S
CHEYENNE WY    FAIR      50  39  66 N13G21    30.29S
SCOTTSBLUFF NE FAIR      50  45  83 SW7       30.21R
OMAHA NE       FAIR      61  46  57 SE3       29.88F
DES MOINES IA  FAIR      64  44  48 W3        29.84F
DAVENPORT IA   MOCLDY    63  52  67 W9        29.80R
CHICAGO IL     FAIR      64  48  56 SW5       29.75F
EAU CLAIRE WI  FAIR      52  50  93 SW6       29.69F
LA CROSSE WI   FAIR      59  51  75 S7        29.71F
$$

  *****  SOME NATIONAL WEATHER *****

CITY           SKY/WX    TMP DP  RH WIND       PRES   REMARKS
LA GUARDIA NY  CLOUDY    62  51  67 E10       29.90F
RALEIGH NC     MOCLDY    71  67  87 W3        29.84S
ATLANTA GA     MOCLDY    71  64  78 SW3       29.95F
NEW ORLEANS LA FAIR      77  75  93 W5        29.99R
OKLAHOMA CITY  MOCLDY    61  47  59 S5        30.05R
ALBUQUERQUE NM FAIR      66  35  31 E9        30.19R
SALT LAKE CITY FAIR      67  43  41 CALM      30.15R
LOS ANGELES CA FAIR      61  56  83 W9        29.98R
BOISE ID       FAIR      72  40  31 NE3       30.08S
SEATTLE WA     FAIR      68  49  50 NW3       30.02S
$$

*** WEATHER ACROSS MANITOBA...SASKATCHEWAN AND ONTARIO ***
                ***ONTARIO***

CITY           SKY/WX    TMP DP  RH WIND       PRES   REMARKS
GERALDTON      CLOUDY    54  52  94 CALM      29.56F
THUNDER BAY    CLOUDY    50  50 100 SW2       29.57F
SIOUX LOOKOUT  CLOUDY    52  50  93 N6        29.58F
TORONTO        CLOUDY    59  55  88 SE6       29.65F
BIG TROUT LK   MOCLDY    57  50  77 NE5       29.59F
PICKLE LAKE    NOT AVBL
DRYDEN         LGT RAIN  52  52 100 W6        29.60F
KENORA         CLOUDY    50  46  87 NW10G20   29.66F
$$
                *** MANITOBA***

CITY           SKY/WX    TMP DP  RH WIND       PRES   REMARKS
BRANDON        CLOUDY    52  43  71 N18       29.88F
DAUPHIN        LGT RAIN  50  46  87 NW10G17   29.90S
ISLAND LAKE    NOT AVBL
PILOT MOUND      N/A     48  46  93 NW7         N/A
THE PAS        CLOUDY    50  41  71 N17G25    29.92R
THOMPSON       DRIZZLE   37  36  93 N10       29.85S FOG
WINNIPEG       LGT RAIN  48  45  87 N12       29.79R
LYNN LAKE      LGT RAIN  43  37  81 N22G30    30.01R
CHURCHILL      LGT RAIN  32  32 100 N14       29.88S WCI  22
GILLAM         DRIZZLE   36  36 100 N12       29.80R FOG
$$
                ***SASKATCHEWAN***

CITY           SKY/WX    TMP DP  RH WIND       PRES   REMARKS
ESTEVAN        PTCLDY    50  43  76 NW14      30.03F
KINDERSLEY     PTCLDY    50  34  53 N8        30.20S
LLOYDMINSTER   CLEAR     52  34  50 N6        30.22R
PRINCE ALBERT  PTCLDY    50  39  66 N5        30.13S
REGINA         PTCLDY    48  39  71 N8        30.09R
YORKTON          N/A     50  46  87 NW13G24   30.00F
N. BATTLEFORD  CLEAR     48  37  66 NE7       30.22R
LA RONGE       MOCLDY    52  41  66 NW9       30.13S
SASKATOON      PTCLDY    48  37  66 N10       30.18S
SWIFT CURRENT  CLEAR     46  32  57 N8        30.18R
$$
NOTE: THESE ARE AUTOMATED STATIONS WITH LIMITED QUALITY CONTROL
      "FAIR" INDICATES FEW OR NO CLOUDS BELOW 12,000 FEET WITH NO
      SIGNIFICANT WEATHER AND/OR OBSTRUCTIONS TO VISIBILITY.
      SKY/WX - SKY CONDITION AND SIGNIFICANT WEATHER.
      TMP - AIR TEMPERATURE.    DP   - DEWPOINT TEMPERATURE.
      RH  - RELATIVE HUMIDITY.  PRES - PRESSURE.
      HX  - HEAT INDEX.         WCI  - WIND CHILL INDEX.
$



USA.gov is the U.S. government's official web portal to all federal, state and local government web resources and services.